Total_Precipitation_Accumulation
0.03 0.04 0.05 0.11 0.29 0.58 0.72 0.56 0.49 0.50 0.53 0.45 0.43 0.44 0.54 0.70 0.99 1.79 1.16 0.69 0.43 0.32 0.38 0.41 0.56 0.51 0.49 0.50 0.55 0.63 0.76 0.80 0.88 0.91 0.90 0.96 1.04 1.00 0.94 1.03 1.16 1.41 1.66 1.82 1.96 2.14 2.48 2.69 2.63
0.04 0.05 0.09 0.18 0.45 0.66 0.73 0.55 0.55 0.51 0.47 0.45 0.43 0.43 0.45 0.57 0.54 0.68 0.68 0.72 0.63 0.51 0.48 0.43 0.57 0.58 0.51 0.51 0.58 0.68 0.81 0.86 0.99 0.98 0.87 0.93 1.00 1.02 0.98 1.04 1.17 1.46 1.78 2.02 2.05 2.10 2.32 2.36 2.37
0.04 0.06 0.12 0.30 0.51 0.56 0.71 0.57 0.60 0.55 0.45 0.44 0.50 0.53 0.61 0.77 0.81 0.91 0.93 0.86 0.82 0.70 0.59 0.54 0.64 0.67 0.64 0.62 0.65 0.72 0.84 0.92 1.01 0.93 0.95 1.02 1.08 1.08 1.06 1.05 1.13 1.37 1.84 2.11 2.06 2.07 2.09 2.12 2.24
0.05 0.08 0.18 0.38 0.47 0.39 0.55 0.61 0.58 0.61 0.51 0.47 0.53 0.71 0.76 0.84 0.91 0.97 0.84 0.80 0.73 0.65 0.57 0.53 0.61 0.63 0.67 0.63 0.63 0.77 0.84 0.95 1.05 1.10 1.11 1.13 1.27 1.29 1.17 1.18 1.30 1.45 1.81 2.09 2.10 2.13 2.10 2.06 2.19
0.05 0.11 0.28 0.43 0.40 0.31 0.41 0.52 0.65 0.71 0.65 0.56 0.61 0.92 1.25 1.23 1.12 1.01 0.83 0.82 0.81 0.66 0.60 0.53 0.57 0.63 0.66 0.69 0.71 0.88 0.98 1.07 1.22 1.27 1.23 1.26 1.36 1.39 1.32 1.37 1.47 1.65 1.79 1.97 1.98 1.96 1.94 1.88 2.04
0.05 0.13 0.32 0.42 0.39 0.31 0.38 0.49 0.59 0.66 0.60 0.54 0.69 1.14 1.80 1.66 1.30 1.37 1.28 0.97 0.95 0.83 0.73 0.62 0.61 0.74 0.85 0.86 0.86 1.00 1.04 1.16 1.28 1.37 1.34 1.29 1.27 1.25 1.26 1.38 1.50 1.72 1.87 1.85 1.68 1.64 1.67 1.73 1.84
0.06 0.15 0.27 0.37 0.46 0.43 0.44 0.50 0.60 0.62 0.64 0.67 0.94 1.42 1.91 1.83 1.51 1.53 1.48 1.14 1.06 0.91 0.76 0.70 0.66 0.85 1.07 1.10 1.03 1.03 1.03 1.17 1.31 1.44 1.46 1.33 1.22 1.16 1.20 1.28 1.37 1.58 1.65 1.54 1.48 1.50 1.46 1.50 1.67
0.05 0.10 0.19 0.28 0.51 0.52 0.48 0.55 0.57 0.53 0.64 0.80 1.08 1.44 1.81 1.78 1.52 1.36 1.32 1.26 1.22 1.18 1.01 0.97 0.94 1.01 1.08 1.11 1.16 1.12 1.11 1.25 1.37 1.43 1.46 1.41 1.33 1.27 1.31 1.25 1.37 1.50 1.60 1.62 1.63 1.57 1.48 1.47 1.56
0.06 0.12 0.20 0.29 0.48 0.50 0.48 0.47 0.47 0.47 0.55 0.83 0.96 1.01 1.34 1.46 1.42 1.47 1.47 1.38 1.41 1.41 1.45 1.36 1.28 1.28 1.24 1.21 1.22 1.33 1.35 1.41 1.42 1.48 1.46 1.42 1.46 1.53 1.52 1.39 1.51 1.63 1.78 1.92 1.89 1.79 1.73 1.65 1.65
0.08 0.18 0.21 0.23 0.29 0.36 0.43 0.46 0.41 0.47 0.55 0.82 1.15 1.08 1.10 1.33 1.53 1.69 1.80 1.74 1.72 1.73 1.77 1.75 1.74 1.70 1.64 1.57 1.74 1.83 1.62 1.56 1.52 1.69 1.53 1.51 1.81 1.91 1.72 1.88 2.06 2.26 2.31 2.26 2.12 2.01 1.90 1.73 1.63
0.09 0.15 0.21 0.26 0.23 0.28 0.36 0.42 0.37 0.52 0.72 0.83 1.18 1.52 1.44 1.61 1.87 2.15 2.11 2.20 2.21 2.09 1.82 1.75 2.02 2.13 2.19 2.31 2.21 2.20 2.17 2.14 2.05 2.16 2.03 2.05 2.22 2.15 2.24 2.35 2.29 2.31 2.40 2.30 2.33 2.14 1.78 1.59 1.72
0.11 0.15 0.21 0.24 0.22 0.22 0.27 0.38 0.42 0.56 0.89 1.02 1.27 1.55 1.93 1.96 2.15 2.24 2.36 2.42 2.38 2.38 2.18 1.95 2.02 2.11 2.30 2.50 2.49 2.44 2.36 2.30 2.24 2.36 2.21 2.37 2.58 2.70 2.78 2.88 2.66 2.60 2.55 2.66 2.63 2.47 2.10 1.83 1.79
0.14 0.15 0.17 0.20 0.18 0.16 0.29 0.41 0.40 0.50 0.64 0.87 1.13 1.35 1.76 1.86 1.96 2.29 2.63 2.94 2.94 2.76 2.63 2.46 2.22 2.19 2.38 2.68 2.82 2.78 2.84 2.67 2.72 2.86 2.66 2.63 2.71 2.79 3.14 3.21 3.41 3.02 2.92 3.09 3.04 2.77 2.61 2.34 2.14
0.13 0.12 0.14 0.18 0.17 0.18 0.27 0.34 0.39 0.44 0.54 0.67 0.78 1.03 1.36 1.61 1.89 2.51 2.97 3.29 3.57 3.40 3.06 2.79 2.64 2.53 2.52 2.66 2.98 3.10 2.94 2.97 3.00 3.13 3.04 2.98 3.02 3.14 3.49 3.66 3.76 3.50 3.52 3.76 3.77 3.50 3.27 2.98 2.87
0.13 0.15 0.17 0.18 0.21 0.18 0.22 0.38 0.45 0.50 0.53 0.62 0.71 0.91 1.31 1.78 2.05 2.77 3.36 3.69 3.93 3.65 3.48 3.21 3.10 3.13 2.92 2.84 3.13 3.26 3.16 3.10 3.15 3.36 3.43 3.30 3.37 3.70 3.83 4.18 4.17 3.96 3.93 3.99 3.98 4.21 4.11 3.58 3.31
0.15 0.23 0.31 0.22 0.20 0.17 0.22 0.47 0.53 0.56 0.61 0.70 0.80 1.00 1.35 1.82 2.14 2.49 2.93 3.37 3.83 3.88 3.67 3.52 3.15 3.15 3.36 3.35 3.64 3.58 3.66 3.80 3.77 3.81 3.99 3.90 3.93 4.05 4.10 4.15 4.24 4.18 4.15 4.48 4.69 4.61 4.53 4.28 3.93
0.18 0.22 0.26 0.25 0.19 0.18 0.20 0.40 0.55 0.55 0.58 0.74 0.88 1.21 1.64 1.80 2.07 2.19 2.57 2.86 3.27 3.35 3.47 3.54 3.46 3.41 3.46 3.66 4.09 4.23 4.44 4.61 4.76 4.80 5.00 4.88 4.63 4.53 4.62 4.60 4.77 4.62 4.68 4.72 4.57 5.01 4.99 4.88 4.42
0.12 0.15 0.19 0.25 0.20 0.20 0.23 0.32 0.58 0.70 0.69 0.81 0.92 1.14 1.50 1.66 2.08 2.32 2.47 2.52 3.02 3.35 3.48 3.57 3.75 3.96 3.95 4.02 4.35 4.82 5.04 5.15 5.48 5.51 5.51 5.55 5.52 5.38 5.40 5.36 5.41 5.26 5.12 5.07 5.07 5.19 4.94 4.77 4.51
0.08 0.12 0.15 0.17 0.17 0.19 0.29 0.43 0.62 0.76 0.79 1.01 1.22 1.31 1.37 1.57 2.09 2.54 2.69 2.80 3.18 3.48 3.68 3.59 3.79 4.21 4.49 4.89 4.94 5.18 5.63 5.96 6.05 6.09 6.05 5.94 5.87 5.92 5.80 5.63 5.79 5.60 5.34 5.13 5.12 5.11 4.98 4.60 4.56
0.06 0.11 0.14 0.17 0.18 0.20 0.35 0.57 0.64 0.75 0.86 1.17 1.40 1.40 1.37 1.57 1.95 2.44 2.69 3.06 3.36 3.47 3.71 3.84 3.99 4.50 4.99 5.56 6.10 6.50 6.92 6.95 7.06 6.98 6.85 6.47 6.28 6.23 6.06 6.08 5.89 5.69 5.59 5.32 5.12 5.10 4.98 4.59 4.65
0.05 0.07 0.11 0.16 0.21 0.25 0.39 0.70 0.82 0.95 1.05 1.26 1.37 1.32 1.40 1.63 1.99 2.33 2.65 3.03 3.35 3.52 3.76 3.93 4.28 4.89 5.73 6.36 6.89 7.43 7.77 7.50 7.27 6.95 6.76 6.62 6.59 6.55 6.42 6.36 6.07 5.85 5.61 5.27 5.00 4.88 4.81 4.69 4.69
0.07 0.08 0.08 0.12 0.23 0.36 0.41 0.81 1.14 1.28 1.39 1.36 1.37 1.49 1.63 1.77 1.96 2.24 2.56 2.90 3.21 3.56 3.70 3.91 4.57 5.26 5.93 6.60 7.26 7.81 8.06 8.05 7.81 7.22 6.72 6.33 6.08 5.83 5.75 5.79 5.66 5.48 5.18 4.95 4.61 4.52 4.47 4.64 4.45
0.08 0.09 0.11 0.14 0.21 0.35 0.41 0.77 1.38 1.67 1.75 1.72 1.75 1.82 1.81 1.80 1.94 2.14 2.41 2.69 2.87 3.25 3.66 3.97 4.66 5.42 6.10 6.90 7.66 8.06 8.22 8.16 7.77 6.98 6.22 5.69 5.34 5.02 4.81 4.86 4.80 4.64 4.44 4.28 4.23 4.30 4.20 4.14 3.96
0.08 0.11 0.16 0.21 0.30 0.47 0.47 0.76 1.50 1.92 2.07 2.12 2.04 2.05 1.95 1.86 1.83 1.90 2.19 2.40 2.70 3.07 3.52 4.05 4.43 5.11 5.95 6.56 7.09 7.26 7.38 7.31 6.87 6.39 5.85 5.47 4.97 4.49 4.12 4.00 3.94 3.77 3.61 3.62 3.65 3.76 3.72 3.76 3.77
0.09 0.21 0.43 0.58 0.64 0.60 0.46 0.77 1.49 1.81 1.78 1.84 1.88 1.93 1.90 1.73 1.77 2.02 2.32 2.30 2.61 2.99 3.44 3.94 4.38 4.87 5.50 6.05 6.47 6.66 6.77 6.65 6.15 5.67 5.22 4.78 4.24 3.84 3.55 3.37 3.32 3.22 3.16 3.15 3.31 3.44 3.37 3.33 3.39
0.10 0.20 0.49 0.74 0.76 0.77 0.73 1.17 1.73 1.80 1.67 1.52 1.58 1.71 1.84 1.84 1.85 1.99 2.15 2.28 2.62 2.90 3.19 3.58 3.92 4.34 4.63 4.95 5.42 5.66 5.79 5.59 5.21 4.75 4.22 3.88 3.53 3.18 3.03 2.93 2.86 2.79 2.69 2.66 2.89 3.00 3.05 3.06 3.11
0.13 0.18 0.27 0.38 0.46 0.77 1.18 1.54 1.92 1.89 1.82 1.65 1.56 1.63 1.74 1.74 1.81 2.01 2.22 2.41 2.60 2.95 3.42 3.59 3.58 3.79 4.06 4.36 4.56 4.63 4.68 4.54 4.29 4.01 3.66 3.28 2.95 2.66 2.54 2.49 2.49 2.45 2.43 2.48 2.68 2.72 2.67 2.76 2.77
0.12 0.16 0.23 0.39 0.73 1.02 1.35 1.96 2.35 2.45 2.41 2.24 1.84 1.75 1.69 1.76 1.88 2.02 2.15 2.36 2.46 2.59 2.97 3.27 3.33 3.43 3.51 3.63 3.69 3.63 3.77 3.68 3.60 3.42 3.15 2.85 2.62 2.39 2.35 2.29 2.27 2.30 2.25 2.26 2.40 2.49 2.54 2.56 2.54
0.17 0.19 0.25 0.40 0.55 1.01 1.50 2.20 2.41 2.72 2.83 2.72 2.32 2.17 2.16 2.19 2.10 2.07 2.04 2.08 2.26 2.39 2.57 2.87 3.11 3.15 3.15 3.27 3.29 3.20 3.32 3.32 3.32 3.15 2.94 2.79 2.72 2.58 2.40 2.29 2.35 2.35 2.27 2.23 2.25 2.16 2.26 2.37 2.44
0.17 0.22 0.34 0.63 0.69 0.78 1.35 2.41 2.66 2.82 2.75 2.52 2.41 2.32 2.17 2.07 1.92 1.88 1.84 1.87 1.98 2.20 2.47 2.72 2.89 2.81 2.82 2.94 3.10 3.21 3.27 3.21 3.10 2.84 2.69 2.59 2.45 2.31 2.27 2.25 2.30 2.29 2.21 2.21 2.12 1.99 2.08 2.23 2.32